EW9037 Weather Reports


Display with metric or nautical units.
time (UTC)temp
F
wind
direction
speed
MPH
gust
MPH
rain 1hr
in
rain 24hr
in
rain mn
in
humidity
%
barometer
mb
20180820223023 78 174 4.0 11.0 0.01 0.39 0.39 85 1010.2
20180820221537 81 295 7.0 12.0 0.00 0.38 0.38 83 1010.1
20180820220110 82 252 2.0 7.0 0.00 0.38 0.38 81 1009.4
20180820214527 83 249 3.0 6.0 0.00 0.38 0.38 79 1009.6
20180820213033 83 226 4.0 6.0 0.00 0.38 0.38 78 1009.7
20180820211521 83 239 4.0 8.0 0.00 0.38 0.38 79 1009.7
20180820210016 85 186 4.0 8.0 0.00 0.38 0.38 75 1009.9
20180820204511 84 252 3.0 7.0 0.00 0.38 0.38 80 1010.2
20180820203009 83 198 3.0 9.0 0.00 0.38 0.38 80 1010.3
20180820201515 83 218 4.0 8.0 0.00 0.38 0.38 78 1010.4
20180820200009 83 257 6.0 11.0 0.00 0.38 0.38 83 1010.7
20180820194503 82 255 4.0 9.0 0.00 0.38 0.38 81 1011.0
20180820193008 82 225 5.0 10.0 0.00 0.38 0.38 80 1011.1
20180820191609 83 245 4.0 11.0 0.00 0.38 0.38 80 1011.2
20180820190057 84 203 4.0 9.0 0.00 0.38 0.38 79 1011.5
20180820184611 83 271 4.0 9.0 0.00 0.38 0.38 81 1011.7
20180820183113 83 162 4.0 10.0 0.00 0.38 0.38 79 1011.6
20180820181552 83 163 4.0 11.0 0.00 0.38 0.38 82 1011.7
20180820180056 83 155 3.0 10.0 0.00 0.38 0.38 81 1011.9
20180820174554 82 210 5.0 12.0 0.00 0.38 0.38 82 1012.0
20180820173048 82 190 4.0 10.0 0.00 0.38 0.38 82 1012.0
20180820171558 82 226 5.0 12.0 0.00 0.38 0.38 83 1012.1
20180820170136 81 240 4.0 10.0 0.00 0.38 0.38 86 1012.1
20180820164545 81 278 5.0 11.0 0.00 0.38 0.38 87 1012.1
20180820163101 79 181 3.0 8.0 0.00 0.38 0.38 91 1012.3
20180820161536 78 172 2.0 7.0 0.00 0.38 0.38 92 1012.4
20180820160041 77 155 1.0 6.0 0.35 0.38 0.38 91 1012.7
20180820154531 76 231 3.0 6.0 0.37 0.38 0.38 89 1012.7
20180820153030 75 215 2.0 8.0 0.38 0.38 0.38 90 1012.7
20180820151552 75 255 1.0 8.0 0.38 0.38 0.38 92 1012.5
20180820150054 77 162 3.0 7.0 0.03 0.03 0.03 92 1012.6
20180820144524 77 193 2.0 8.0 0.01 0.01 0.01 91 1012.7
20180820143043 78 231 5.0 8.0 0.00 0.00 0.00 90 1012.7
20180820141536 77 222 4.0 10.0 0.00 0.00 0.00 91 1012.8
20180820140026 77 155 5.0 8.0 0.00 0.00 0.00 90 1012.4
20180820134520 77 146 5.0 9.0 0.00 0.00 0.00 91 1012.4
20180820133044 77 181 3.0 9.0 0.00 0.00 0.00 91 1012.6
20180820131527 76 186 3.0 5.0 0.00 0.00 0.00 92 1012.8
20180820130014 75 149 3.0 6.0 0.00 0.00 0.00 92 1012.8
20180820124509 74 140 1.0 4.0 0.00 0.00 0.00 91 1012.7
20180820123037 72 153 1.0 3.0 0.00 0.00 0.00 89 1012.9
20180820121507 72 182 2.0 5.0 0.00 0.00 0.00 88 1012.7
20180820120006 71 147 0.0 4.0 0.00 0.00 0.00 87 1012.8
20180820114505 71 172 2.0 4.0 0.00 0.00 0.00 86 1012.6
20180820113005 71 200 1.0 3.0 0.00 0.00 0.00 86 1012.5
20180820111505 70 159 0.0 2.0 0.00 0.00 0.00 86 1012.6
20180820110004 70 152 0.0 3.0 0.00 0.00 0.00 87 1012.5
20180820104504 70 197 1.0 3.0 0.00 0.00 0.00 87 1012.6
20180820103003 69 148 0.0 1.0 0.00 0.00 0.00 86 1012.5
20180820101509 69 75 0.0 1.0 0.00 0.00 0.00 86 1012.5
20180820100002 68 75 0.0 0.0 0.00 0.00 0.00 86 1012.2
20180820094501 68 75 0.0 0.0 0.00 0.01 0.00 87 1012.3
20180820093109 68 75 0.0 0.0 0.00 0.01 0.00 87 1012.2
20180820091649 69 75 0.0 0.0 0.00 0.01 0.00 87 1012.3
20180820090104 69 75 0.0 1.0 0.00 0.01 0.00 87 1012.3
20180820084558 69 75 0.0 0.0 0.00 0.01 0.00 87 1012.3
20180820083053 69 75 0.0 0.0 0.00 0.01 0.00 88 1012.4
20180820081606 70 75 0.0 1.0 0.00 0.01 0.00 89 1012.5
20180820080225 70 75 0.0 1.0 0.00 0.01 0.00 87 1012.5
20180820074550 70 75 0.0 1.0 0.00 0.01 0.00 87 1012.5
20180820073051 70 139 0.0 1.0 0.00 0.01 0.00 86 1012.8
20180820071604 69 207 0.0 0.0 0.00 0.01 0.00 87 1012.9
20180820070055 69 205 0.0 0.0 0.00 0.01 0.00 87 1012.8
20180820064546 69 205 0.0 0.0 0.00 0.01 0.00 88 1012.9
20180820063056 70 205 0.0 1.0 0.00 0.01 0.00 87 1012.9
20180820061546 69 205 0.0 0.0 0.00 0.01 0.00 88 1012.9
20180820060048 70 205 0.0 0.0 0.00 0.01 0.00 89 1013.0
20180820054544 70 205 0.0 1.0 0.00 0.01 0.00 89 1012.9
20180820053037 71 79 0.0 1.0 0.00 0.01 0.00 90 1013.1
20180820051537 71 79 0.0 1.0 0.00 0.01 0.00 91 1013.1
20180820050038 72 79 0.0 1.0 0.00 0.01 0.00 91 1013.2
20180820044550 72 79 0.0 1.0 0.00 0.01 0.00 91 1013.3
20180820043056 72 70 0.0 1.0 0.00 0.01 0.00 91 1013.4
20180820041539 72 69 0.0 1.0 0.00 0.01 0.00 92 1013.5
20180820040033 73 69 0.0 0.0 0.00 0.01 0.00 92 1013.6
20180820034617 73 70 0.0 2.0 0.00 0.01 0.01 92 1013.7
20180820033021 73 71 1.0 2.0 0.00 0.01 0.01 91 1013.6
20180820031604 73 73 0.0 4.0 0.00 0.01 0.01 89 1013.4
20180820030020 72 158 0.0 0.0 0.00 0.01 0.01 89 1013.3
20180820024525 71 158 0.0 0.0 0.00 0.01 0.01 90 1013.3
20180820023035 72 158 0.0 0.0 0.00 0.01 0.01 90 1013.3
20180820021615 72 158 0.0 1.0 0.00 0.01 0.01 90 1013.1
20180820020018 72 158 0.0 0.0 0.00 0.01 0.01 90 1012.8
20180820014521 73 158 0.0 0.0 0.00 0.01 0.01 91 1012.8
20180820013018 73 158 0.0 0.0 0.00 0.01 0.01 91 1012.8
20180820011518 74 158 0.0 0.0 0.00 0.01 0.01 92 1012.7
20180820010021 75 158 0.0 1.0 0.00 0.01 0.01 92 1012.5
20180820004517 75 159 0.0 0.0 0.00 0.01 0.01 92 1012.5
20180820003015 77 159 0.0 0.0 0.00 0.01 0.01 90 1012.4
20180820001516 78 160 0.0 0.0 0.00 0.01 0.01 89 1012.3
20180820000017 80 161 0.0 1.0 0.00 0.01 0.01 87 1012.2
20180819234514 82 160 0.0 0.0 0.00 0.01 0.01 80 1012.0
20180819233015 83 160 0.0 1.0 0.00 0.01 0.01 78 1011.8
20180819231512 85 161 0.0 1.0 0.00 0.01 0.01 75 1011.9
20180819230021 86 160 0.0 1.0 0.00 0.01 0.01 67 1011.8
20180819224523 88 160 0.0 1.0 0.00 0.01 0.01 59 1011.8